Location: Fort Worth, Tx
(32.7431°N, 97.3695°W)
Time: 06:28:59
(UTC-04:00)

Altair - Pass Details

Date: 10 October 2023
Orbit: 1501 x 1682 km, 47.2° (Epoch: 11 September)

Event Time Altitude Azimuth Distance (km) Brightness Sun altitude
Rises 00:28:09 0° 215° (SW) 4,641 - -53.6°
Reaches altitude 10° 00:31:11 10° 212° (SSW) 3,676 - -54.1°
Maximum altitude 00:40:15 60° 135° (SE) 1,742 - -55.5°
Drops below altitude 10° 00:49:41 10° 58° (ENE) 3,818 - -56.9°
Sets 00:52:53 0° 55° (NE) 4,831 - -57.4°
